Change the Weather History Date:

Thursday, December 6, 2012

  Actual Average (LFML) Record (LFML)
Temperature  
Mean Temperature 36 °F -  
Max Temperature 44 °F 54 °F 64 °F (2006)
Min Temperature 28 °F 40 °F 30 °F (1997)
Degree Days  
Heating Degree Days 29    
Moisture  
Dew Point 25 °F    
Average Humidity 62    
Maximum Humidity 93    
Minimum Humidity 39    
Precipitation  
Precipitation 0.00 in - - ()
Sea Level Pressure  
Sea Level Pressure 29.97 in    
Wind  
Wind Speed 11 mph ()    
Max Wind Speed 31 mph    
Max Gust Speed 44 mph    
Visibility 6.2 miles    
Events      
Averages and records for this station are not official NWS values.
T = Trace of Precipitation, MM = Missing Value Source: Averaged Metar Reports

Daily Weather History Graph

Daily Weather History Graph

Search for Another Location

Airport or City:

Trip Planner

Search our weather history database for the weather conditions in past years. The results will help you decide how hot, cold, wet, or windy it might be!

Date:

Astronomy

Dec. 06, 2012 Rise Set
Actual Time 7:58 AM CET 5:02 PM CET
Civil Twilight 7:26 AM CET 5:35 PM CET
Nautical Twilight 6:50 AM CET 6:11 PM CET
Astronomical Twilight 6:15 AM CET 6:46 PM CET
Moon No Moon Rise 12:33 PM CET (12/6)
Length of Visible Light 10h 09m
Length of Day
9h 04m
Waning Gibbous, 52% of the Moon is Illuminated
Dec 6
Waning Gibbous
Dec 6
Last Quarter
Dec 13
New
Dec 20
First Quarter
Dec 28
Full

Hourly Weather History & Observations

Time (CET) Temp. Windchill Dew Point Humidity Pressure Visibility Wind Dir Wind Speed Gust Speed Precip Events Conditions
12:00 AM 28.4 °F - 24.8 °F 86% 29.86 in 6.2 mi Variable 2.3 mph - N/A   Unknown
12:30 AM 28.4 °F 23.3 °F 26.6 °F 93% 29.86 in 6.2 mi ENE 4.6 mph - N/A   Unknown
1:00 AM 30.2 °F 24.3 °F 26.6 °F 86% 29.89 in 6.2 mi NE 5.8 mph - N/A   Unknown
1:30 AM 32.0 °F 27.5 °F 28.4 °F 87% 29.89 in 6.2 mi SW 4.6 mph - N/A   Unknown
2:00 AM 30.2 °F - 26.6 °F 86% 29.89 in 6.2 mi Calm Calm - N/A   Unknown
2:30 AM 30.2 °F - 28.4 °F 93% 29.89 in 6.2 mi Calm Calm - N/A   Unknown
3:00 AM 32.0 °F - 30.2 °F 93% 29.89 in 6.2 mi WSW 2.3 mph - N/A   Unknown
3:30 AM 32.0 °F - 28.4 °F 87% 29.89 in 6.2 mi Variable 2.3 mph - N/A   Unknown
4:00 AM 30.2 °F - 24.8 °F 80% 29.89 in 6.2 mi North 1.2 mph - N/A   Unknown
4:30 AM 33.8 °F 30.8 °F 30.2 °F 87% 29.92 in 6.2 mi NW 3.5 mph - N/A   Unknown
5:00 AM 39.2 °F 32.0 °F 30.2 °F 70% 29.92 in 6.2 mi NNW 11.5 mph - N/A   Unknown
5:30 AM 39.2 °F 30.5 °F 30.2 °F 70% 29.92 in 6.2 mi NNW 16.1 mph - N/A   Unknown
6:00 AM 39.2 °F 29.6 °F 30.2 °F 70% 29.95 in 6.2 mi NNW 19.6 mph - N/A   Unknown
6:30 AM 39.2 °F 29.3 °F 28.4 °F 65% 29.95 in 6.2 mi NNW 20.7 mph - N/A   Unknown
7:00 AM 39.2 °F 28.7 °F 26.6 °F 61% 29.95 in 6.2 mi NW 23.0 mph - N/A   Unknown
7:30 AM 39.2 °F 28.3 °F 24.8 °F 56% 29.95 in 6.2 mi NNW 25.3 mph 38.0 mph N/A   Unknown
8:00 AM 39.2 °F 28.7 °F 24.8 °F 56% 29.98 in 6.2 mi NNW 23.0 mph - N/A   Unknown
8:30 AM 39.2 °F 27.8 °F 24.8 °F 56% 29.98 in 6.2 mi NNW 27.6 mph 43.7 mph N/A   Unknown
9:00 AM 39.2 °F 27.2 °F 24.8 °F 56% 30.01 in 6.2 mi NW 31.1 mph 43.7 mph N/A   Unknown
9:30 AM 41.0 °F 29.8 °F 23.0 °F 49% 30.01 in 6.2 mi NW 29.9 mph 43.7 mph N/A   Unknown
10:00 AM 41.0 °F 29.8 °F 23.0 °F 49% 30.01 in 6.2 mi NNW 29.9 mph 43.7 mph N/A   Unknown
10:30 AM 42.8 °F 32.9 °F 23.0 °F 46% 30.01 in 6.2 mi NNW 26.5 mph - N/A   Unknown
11:00 AM 42.8 °F 33.5 °F 24.8 °F 49% 30.01 in 6.2 mi NW 23.0 mph - N/A   Unknown
11:30 AM 42.8 °F 32.7 °F 23.0 °F 46% 30.01 in 6.2 mi NNW 27.6 mph 42.6 mph N/A   Unknown
2:00 PM 44.6 °F 35.3 °F 21.2 °F 39% 30.01 in 6.2 mi NNW 26.5 mph 39.1 mph N/A   Unknown
2:30 PM 44.6 °F 35.5 °F 23.0 °F 43% 30.01 in 6.2 mi NNW 25.3 mph 36.8 mph N/A   Unknown
3:00 PM 44.6 °F 35.7 °F 23.0 °F 43% 30.01 in 6.2 mi NW 24.2 mph 38.0 mph N/A   Unknown
3:30 PM 42.8 °F 33.5 °F 23.0 °F 46% 30.01 in 6.2 mi NW 23.0 mph 35.7 mph N/A   Unknown
4:00 PM 42.8 °F 34.8 °F 23.0 °F 46% 30.01 in 6.2 mi NW 17.3 mph 33.4 mph N/A   Unknown
4:30 PM 41.0 °F 32.8 °F 23.0 °F 49% 30.01 in 6.2 mi NW 16.1 mph - N/A   Unknown
5:00 PM 41.0 °F 31.9 °F 23.0 °F 49% 30.01 in 6.2 mi NW 19.6 mph 32.2 mph N/A   Unknown
5:30 PM 41.0 °F 33.1 °F 23.0 °F 49% 30.01 in 6.2 mi NW 15.0 mph - N/A   Unknown
6:00 PM 39.2 °F 33.0 °F 23.0 °F 52% 30.01 in 6.2 mi NW 9.2 mph - N/A   Unknown
6:30 PM 39.2 °F 32.5 °F 23.0 °F 52% 30.01 in 6.2 mi NW 10.4 mph - N/A   Unknown
7:00 PM 39.2 °F 31.2 °F 24.8 °F 56% 30.04 in 6.2 mi NNW 13.8 mph - N/A   Unknown
7:30 PM 39.2 °F 30.5 °F 24.8 °F 56% 30.01 in 6.2 mi NNW 16.1 mph - N/A   Unknown
8:00 PM 37.4 °F 28.2 °F 24.8 °F 60% 30.01 in 6.2 mi NNW 16.1 mph - N/A   Unknown
8:30 PM 37.4 °F 27.5 °F 24.8 °F 60% 30.01 in 6.2 mi NNW 18.4 mph - N/A   Unknown
9:00 PM 37.4 °F 28.2 °F 24.8 °F 60% 30.01 in 6.2 mi NNW 16.1 mph - N/A   Unknown
9:30 PM 37.4 °F 28.9 °F 24.8 °F 60% 30.01 in 6.2 mi NNW 13.8 mph - N/A   Unknown
10:00 PM 37.4 °F 28.9 °F 24.8 °F 60% 30.01 in 6.2 mi NNW 13.8 mph - N/A   Unknown
10:30 PM 37.4 °F 33.8 °F 24.8 °F 60% 30.01 in 6.2 mi WNW 4.6 mph - N/A   Unknown
11:00 PM 35.6 °F 27.5 °F 24.8 °F 65% 30.01 in 6.2 mi NNW 11.5 mph - N/A   Unknown
11:30 PM 35.6 °F 30.7 °F 24.8 °F 65% 30.01 in 6.2 mi West 5.8 mph - N/A   Unknown